sat.trackr.live / text

‹ back to catalog

STARLINK-31123

NORAD 58775 · 2024-011L

PAYLOAD ACTIVE UNKNOWN

§ Identity

Operator
Country
US
Launch date
2024-01-14
Launch site
AFWTR
Launch vehicle
Mass (kg)
RCS (m²)

Purposes: comms

External: N2YO · Heavens-Above · Gunter

§ Orbital elements

Epoch: 2026-09-20T11:47:16.809792Z

Period
93.85 min
Inclination
53.1604°
Eccentricity
0.0000980
Mean motion
15.34391404 rev/d
Perigee alt
462.1 km
Apogee alt
463.4 km
Semi-major
6,840.9 km
B*
8.6124e-6
RAAN
185.4096°
Arg perigee
83.3301°
Mean anomaly
276.7813°
Rev number
2,339

§ Raw data

STARLINK-311231 58775U 24011L   26263.49116678 -.00000085  00000+0  86124-5 0  99902 58775  53.1604 185.4096 0000980  83.3301 276.7813 15.34391404 23396

JSON: /api/v1/satellites/58775 · /tle

For live sub-satellite position, see the globe view (requires WebGL).

§ Visibility from observer

Set your observer location to see the next 7 days of passes ≥ 10°. The values pass through the URL so the page stays shareable.

No JS? Fill the form by hand. The geolocation button needs JavaScript.